Location: Arrodets-la-Barthe
(43.0306°N, 0.2829°E)
Time: 18:05:00
(UTC+00:00)

Cosmos 2219 Rocket - Pass Details

Date: 24 October 2021
Orbit: 826 x 848 km, 71.0° (Epoch: 01 December)

Event Time Altitude Azimuth Distance (km) Brightness Sun altitude
Rises 18:09:54 0° 157° (SSE) 3,351 5.1 -13.0°
Reaches altitude 10° 18:13:07 10° 138° (SE) 2,425 4.2 -13.6°
Enters shadow 18:15:26 16° 114° (ESE) 2,022 3.7 -14.1°
